カタログに戻る

TRANSIT 5B-2

運用中ナビゲーションPO
NORAD 704·PAYLOAD·🇺🇸 United States

打ち上げ Dec 5, 1963 から Vandenberg Space Force Base

Loading…

次のパス (今後24時間)

TLE

最新Source: Space-Track

元期: Sep 14, 2026, 10:31 UTC

1 00704U 63049B   26257.43831278  .00000032  00000-0  36277-4 0  9995
2 00704  89.9183  69.7150 0036307  45.0072 342.2420 13.47134380 83345

AllMySatでTRANSIT 5B-2をリアルタイム追跡

Download on the App Store